Date,TemperatureHighF,TemperatureAvgF,TemperatureLowF,DewpointHighF,DewpointAvgF,DewpointLowF,HumidityHigh,HumidityAvg,HumidityLow,PressureMaxIn,PressureMinIn,WindSpeedMaxMPH,WindSpeedAvgMPH,GustSpeedMaxMPH,PrecipitationSumIn
2013-9-1,81.8,72.6,66.1,70.2,67.3,64.3,95,84,61,28.87,28.75,7,2,9,0.01
2013-9-2,75.3,68.1,59.4,69.2,59.7,48.8,95,75,55,28.94,28.76,15,6,20,0.00
2013-9-3,73.8,62.6,56.4,56.3,52.0,48.5,91,69,47,29.04,28.93,12,5,16,0.00
2013-9-4,78.8,64.7,50.3,59.8,55.8,49.4,97,75,48,29.10,27.86,8,2,14,0.00
2013-9-5,70.5,61.0,50.4,60.1,48.9,40.3,90,67,36,29.26,28.03,10,4,13,0.00
2013-9-6,74.4,58.5,43.2,55.8,48.3,41.9,96,72,36,29.28,26.75,9,2,12,0.00
2013-9-7,80.4,66.7,52.8,69.9,59.1,46.9,96,77,58,29.08,28.93,8,1,12,0.02
2013-9-8,74.2,67.5,54.9,65.1,59.0,50.0,95,75,51,29.11,28.95,9,3,16,0.00
2013-9-9,79.8,65.8,50.4,70.9,61.5,48.2,97,86,70,29.08,27.78,8,3,10,0.47
2013-9-10,91.3,79.6,68.1,72.4,69.2,64.8,96,73,42,29.05,28.91,8,3,14,0.00
2013-9-11,89.1,77.0,68.1,72.8,68.4,64.6,97,76,54,29.07,27.87,11,2,18,0.05
2013-9-12,77.8,68.0,55.8,66.7,59.2,47.2,97,75,40,28.99,27.71,20,5,25,0.00
2013-9-13,59.8,52.6,39.5,47.2,42.6,37.9,95,69,46,29.14,28.98,14,6,19,0.00
2013-9-14,67.1,50.0,34.7,47.7,39.6,33.0,97,72,37,29.19,29.09,8,1,10,0.00
2013-9-15,63.5,52.5,41.7,54.2,47.5,39.6,97,84,57,29.13,29.06,8,2,13,0.03
2013-9-16,62.0,54.3,43.1,53.6,48.6,41.4,97,82,51,29.37,29.12,10,4,14,0.01
2013-9-17,67.2,49.8,32.6,50.0,42.1,31.5,97,77,43,29.39,29.21,9,2,15,0.00
2013-9-18,75.2,57.5,42.5,56.8,49.2,40.3,96,76,41,29.22,27.92,10,2,14,0.00
2013-9-19,78.2,65.5,54.8,66.9,61.0,53.0,97,86,66,29.05,28.93,11,4,15,0.00
2013-9-20,78.2,70.1,64.4,69.5,66.5,62.8,97,89,67,28.93,28.76,11,4,15,0.32
2013-9-21,67.3,61.1,55.0,63.8,52.8,44.2,97,75,47,28.89,28.71,15,5,20,0.02
2013-9-22,58.5,51.9,40.6,44.8,40.8,36.5,94,66,50,29.08,28.88,12,5,16,0.01
2013-9-23,61.1,47.9,37.0,46.2,41.3,36.1,97,80,50,29.19,29.08,8,1,10,0.00
2013-9-24,66.0,49.9,35.1,49.7,43.0,33.8,96,79,49,29.15,29.00,10,1,14,0.00
2013-9-25,69.2,52.1,38.3,53.1,46.1,37.5,97,82,52,29.02,28.96,7,1,10,0.00
2013-9-26,75.9,55.3,37.8,52.8,45.2,37.0,97,74,34,29.14,27.92,6,1,13,0.00
2013-9-27,75.5,57.0,40.0,56.4,48.9,38.5,96,77,47,29.24,27.98,10,2,13,0.00
2013-9-28,77.6,60.6,44.6,59.2,52.0,43.6,98,77,40,29.20,26.76,12,3,14,0.00
2013-9-29,62.2,59.2,55.2,61.1,56.5,51.5,98,90,77,29.02,28.97,9,3,11,0.10
2013-9-30,70.0,59.0,48.6,56.5,53.1,47.2,98,83,49,29.02,28.95,9,2,12,0.00